Bedford, Massachusetts, United States (01730)
Lat: 42.49N, Lon: 71.28W
Wx Zone: MAZ005
Local Info
Past Weather Observations for Friday, September 23, 2016

NOTE: This archive is for the closest National Weather Service station to Bedford. Information may differ from the station used for current weather conditions.

Click here for Long-term Archive

Time Weather Temperature Dewpoint Humidity Pressure Winds Precip Visibility
23:56
Overcast
55°F / 13°C 54°F / 12°C 94% 30.09 in
(1019 mb)
N 5.8 mph
(N 9 kph)
0.00 in
(0.00 mm)
10SM
22:56
Overcast
Light Rain
55°F / 13°C 54°F / 12°C 94% 30.09 in
(1019 mb)
NE 5.8 mph
(NE 9 kph)
0.09 in
(2.29 mm)
10SM
22:53
Overcast
Light Rain
55°F / 13°C 54°F / 12°C 94% 30.09 in
(1019 mb)
NE 5.8 mph
(NE 9 kph)
0.09 in
(2.29 mm)
10SM
22:33
Overcast
Light Rain
55°F / 13°C 54°F / 12°C 94% 30.09 in
(1019 mb)
NE 6.9 mph
(NE 11 kph)
0.08 in
(2.03 mm)
8SM
21:56
Overcast
Light Rain
55°F / 13°C 54°F / 12°C 94% 30.06 in
(1018 mb)
Calm 0.29 in
(7.37 mm)
5SM
21:50
Overcast
Rain
55°F / 13°C 54°F / 12°C 94% 30.06 in
(1018 mb)
Calm 0.28 in
(7.11 mm)
3SM
21:45
Overcast
Heavy Rain
55°F / 13°C 54°F / 12°C 94% 30.06 in
(1018 mb)
Calm 0.27 in
(6.86 mm)
2SM
21:35
Overcast
Heavy Rain
55°F / 13°C 54°F / 12°C 94% 30.06 in
(1018 mb)
NNW 3.5 mph
(NNW 6 kph)
0.20 in
(5.08 mm)
1 3/4SM
21:29
Overcast
Rain
55°F / 13°C 54°F / 12°C 94% 30.09 in
(1019 mb)
NW 3.5 mph
(NW 6 kph)
0.13 in
(3.30 mm)
3SM
21:21
Overcast
Rain
55°F / 13°C 54°F / 12°C 94% 30.06 in
(1018 mb)
NNE 3.5 mph
(NNE 6 kph)
0.09 in
(2.29 mm)
4SM
21:13
Overcast
Rain
55°F / 13°C 54°F / 12°C 94% 30.06 in
(1018 mb)
NE 6.9 mph
(NE 11 kph)
0.06 in
(1.52 mm)
3SM
20:56
Overcast
Rain
57°F / 14°C 52°F / 11°C 82% 30.06 in
(1018 mb)
NE 9.2 mph
(NE 15 kph)
0.01 in
(0.25 mm)
5SM
19:56
Overcast
Light Rain
61°F / 16°C 50°F / 10°C 68% 30.06 in
(1018 mb)
NE 13.8 mph
(NE 22 kph)
0.00 in
(0.00 mm)
10SM
18:56
Overcast
64°F / 18°C 54°F / 12°C 68% 30.01 in
(1016 mb)
ENE 15 mph
(ENE 24 kph)
- 10SM
18:47
Overcast
64°F / 18°C 54°F / 12°C 68% 30.01 in
(1016 mb)
ENE 13.8 mph
(ENE 22 kph)
- 10SM
17:56
Mostly Cloudy
68°F / 20°C 54°F / 12°C 60% 30.01 in
(1016 mb)
N 10.4 mph
(N 17 kph)
- 10SM
16:56
Mostly Cloudy
72°F / 22°C 59°F / 15°C 65% 29.98 in
(1015 mb)
N 13.8 mph
(N 22 kph)
- 10SM
15:56
Clear
77°F / 25°C 55°F / 13°C 47% 29.95 in
(1014 mb)
NNW 9.2 mph
(NNW 15 kph)
- 10SM
14:56
Partly Cloudy
81°F / 27°C 54°F / 12°C 39% 29.92 in
(1013 mb)
N 6.9 mph
(N 11 kph)
- 10SM
13:56
Clear
79°F / 26°C 52°F / 11°C 39% 29.95 in
(1014 mb)
NW 6.9 mph
(NW 11 kph)
- 10SM
12:56
Overcast
77°F / 25°C 54°F / 12°C 44% 29.95 in
(1014 mb)
Variable 5.8 mph
(Variable 9 kph)
- 10SM
11:56
Clear
73°F / 23°C 54°F / 12°C 50% 29.98 in
(1015 mb)
SSW 5.8 mph
(SSW 9 kph)
- 10SM
10:56
Clear
72°F / 22°C 54°F / 12°C 53% 29.98 in
(1015 mb)
SSW 3.5 mph
(SSW 6 kph)
- 10SM
09:56
Overcast
70°F / 21°C 52°F / 11°C 53% 29.98 in
(1015 mb)
S 3.5 mph
(S 6 kph)
- 10SM
08:56
Clear
66°F / 19°C 48°F / 9°C 52% 30.01 in
(1016 mb)
Calm - 10SM
07:56
Clear
64°F / 18°C 48°F / 9°C 56% 30.01 in
(1016 mb)
SW 4.6 mph
(SW 7 kph)
- 10SM
06:56
Clear
63°F / 17°C 48°F / 9°C 59% 30.01 in
(1016 mb)
SW 3.5 mph
(SW 6 kph)
- 10SM
05:56
Clear
61°F / 16°C 48°F / 9°C 63% 30.04 in
(1017 mb)
Calm - 10SM
04:56
Partly Cloudy
61°F / 16°C 48°F / 9°C 63% 30.01 in
(1016 mb)
SW 3.5 mph
(SW 6 kph)
- 10SM
03:56
Clear
63°F / 17°C 48°F / 9°C 59% 30.01 in
(1016 mb)
Calm - 10SM
02:56
Clear
61°F / 16°C 48°F / 9°C 63% 30.01 in
(1016 mb)
SW 5.8 mph
(SW 9 kph)
- 10SM
01:56
Clear
61°F / 16°C 48°F / 9°C 63% 30.04 in
(1017 mb)
W 3.5 mph
(W 6 kph)
- 10SM
00:56
Clear
63°F / 17°C 48°F / 9°C 59% 30.04 in
(1017 mb)
SW 3.5 mph
(SW 6 kph)
- 10SM
Time Weather Temperature Dewpoint Humidity Pressure Winds Precip Visibility


Weather for websites

WeatherForYou.com, LLC is not responsible for any damages or problems caused by this service. Current weather conditions are obtained from the closest station including government and personal stations which may have varying degrees of accuracy. Weather forecasts are derived from the NOAA NDFD. Like all things, this site belongs to Jesus Christ... He just trusts us to maintain it. If you have any questions or comments email webmaster@weatherforyou.com

Copyright © 2016, WeatherForYou.com LLC. All rights reserved.